Погода в Молодежном

Россия / Тульская область     54°15′07″N   37°41′36″E
темп.,
°C
ветер,
м/с
пор.,
м/с
влажн.,
%
обл.,
%
осадки,
мм/ч
давл.,
гПа
погр.,
м
20 апреля, вт
вт2000:00+4всв71296100 1.4 1021797
03:00+4всв61293100 1.5 1020634
06:00+4в61282100 0.0 1019527
09:00+5в61189100 0.0 1019731
12:00+3в61195100 0.0 1018715
15:00+2всв61297100 0.6 1017429
18:00+2всв61396100 0.2 1014538
21:00+2всв61296100 0.4 1011535
21 апреля, ср
ср2100:00+1св51298100 3.6 1007404
03:000ссв4999100 7.4 1004314
06:000сз23100100 3.3 100295
09:00+1з35100100 4.0 1004340
12:00+2зюз4898100 0.1 1006621
15:00+3зюз4995100 0.1 1008687
18:00+4юз4896100 0.0 1010470
21:00+3ююз3697100 0.1 1012203
22 апреля, чт
чт2200:00+4ююз4895100 0.1 1013432
03:00+4ююз4895100 0.4 1014299
06:00+2ююз379594 0.0 1015190
09:00+6ююз468459 0.0 1016529
12:00+10юз566062 0.3 10161481
15:00+11ююз576760 0.6 10161114
18:00+11ю487179 0.1 1016703
21:00+9ю498452 0.2 1017275
23 апреля, пт
пт2300:00+7ю410915 0.0 1016258
03:00+6ю389336 0.0 1016181
06:00+6ю4118989 0.1 1016255
09:00+11ю5127191 0.2 1016596
12:00+15ююз7115210 0.0 10151770
15:00+17ю8114383 0.2 10132622
18:00+15ююв712557 0.1 10131182
21:00+11ю5117398 1.3 1013507
24 апреля, сб
сб2400:00+10ююв378595 0.3 1012383
03:00+8ю4991100 0.5 1010630
06:00+4зсз4795100 1.9 1012667
09:00+5з4691100 3.9 1012661
12:00+6зсз2474100 1.0 1012900
15:00+8з4656100 1.8 10121449
18:00+9зсз475096 0.3 1011949
21:00+5зсз35675 0.4 1012104